Flag for France Weather past 2 weeks in Gustavia, Saint Barthélemy, France

Now
81 °F

Passing clouds.


Feels Like: 82 °F
Forecast: N/A
Wind: 13 mph from East

Location: Juliana Airport - Saint Maarten

Current Time: Dec 26, 2014 at 5:29:57 PM

Latest Report: Dec 26, 2014 at 5:00 PM


Visibility: N/A

Pressure: 30.01 "Hg

Humidity: 58%

Dew point: 64 °F

Location of GustaviaLocation

Historic Weather in Gustavia — Graph

°F

Gustavia temperature yesterday

Maximum temperature yesterday: 82 °F (at 10:00 AM)
Minimum temperature yesterday: 75 °F (at 5:00 PM)
Average temperature yesterday: 79 °F

Past Weeks' High & Low Weather Summary

 TemperatureHumidityPressure
High86 °F (Dec 14, 12:00 PM)94% (Dec 16, 6:00 PM)30.09 "Hg (Dec 16, 6:00 PM)
Low73 °F (Dec 18, 4:00 AM)24% (Dec 25, 5:00 PM)29.86 "Hg (Dec 13, 3:00 PM)
Average80 °F73%29.99 "Hg
* Reported Dec 11 4:00 PM — Dec 26 4:00 PM, Gustavia, Weather by CustomWeather, © 2014

Note: Actual official high and low records may vary slightly from our data, if they occured in-between our weather recording intervals... More about our weather records

Advertising

Gustavia weather history for previous 24 hours

 ConditionsComfort  
Time TempWeatherWind HumidityBarometerVisibility
4:00 PM
Dec 26
82 °FPassing clouds.14 mph55%30.01 "HgN/A
3:00 PM82 °FPassing clouds.13 mph58%30.01 "HgN/A
2:00 PM82 °FScattered clouds.16 mph58%30.01 "HgN/A
1:00 PM82 °FScattered clouds.15 mph62%30.04 "HgN/A
12:00 PM84 °FScattered clouds.15 mph58%30.07 "HgN/A
11:00 AM82 °FPassing clouds.13 mph62%30.09 "HgN/A
10:00 AM81 °FPassing clouds.15 mph66%30.09 "HgN/A
9:00 AM79 °FSprinkles. Partly sunny.16 mph70%30.09 "HgN/A
8:00 AM79 °FScattered clouds.16 mph70%30.07 "HgN/A
7:00 AM79 °FPassing clouds.8 mph70%30.04 "HgN/A
6:00 AM77 °FPassing clouds.8 mph79%30.04 "HgN/A
5:00 AM77 °FPassing clouds.10 mph79%30.04 "HgN/A
4:00 AM77 °FPassing clouds.8 mph79%30.04 "HgN/A
3:00 AM79 °FPassing clouds.9 mph74%30.04 "HgN/A
2:00 AM79 °FPassing clouds.13 mph79%30.04 "HgN/A
1:00 AM79 °FPassing clouds.14 mph74%30.07 "HgN/A
12:00 AM79 °FPassing clouds.13 mph74%30.07 "HgN/A
11:00 PM
Dec 25
79 °FPassing clouds.14 mph79%30.07 "HgN/A
10:00 PM79 °FPassing clouds.12 mph74%30.07 "HgN/A
9:00 PM79 °FPassing clouds.9 mph74%30.09 "HgN/A
8:00 PM77 °FPassing clouds.10 mph74%30.07 "HgN/A
7:00 PM79 °FPassing clouds.9 mph74%30.04 "HgN/A
6:00 PM77 °FPassing clouds.9 mph79%30.04 "HgN/A
5:00 PM75 °FRain showers. Broken clouds.13 mph24%30.04 "Hg2 mi
Weather by CustomWeather, © 2014

See weather overviewHow to use our weather pages